Location: Newark
(34.0131°N, 4.3314°W)
Time: 22:37:06
(UTC+00:00)

Explorer 7 - Pass Details

Date: 21 October 2019
Orbit: 485 x 680 km, 50.3° (Epoch: 13 November)

Event Time Altitude Azimuth Distance (km) Brightness Sun altitude
Rises 11:41:04 0° 264° (W) 2,558 10.2 45.0°
Reaches altitude 10° 11:43:41 10° 282° (WNW) 1,667 9.2 45.1°
Maximum altitude 11:46:30 20° 331° (NNW) 1,175 8.3 45.1°
Drops below altitude 10° 11:49:19 10° 20° (NNE) 1,668 9.0 45.2°
Sets 11:51:57 0° 38° (NE) 2,561 9.9 45.2°
